Content
SEND FEEDBACK

Daily
Averages
Monthly
Summary
United States of America

WILMINGTON, NORTH CAROLINA


Home > North America > United States > North Carolina
Elevation: 72 feet     Latitude: 34 16N     Longitude: 077 54W

WEATHER
 
SELECT A DAY
Number of Records: 208,995;   Date Range: 1/1/95 - 8/30/14
 
SHARE

PRINT THIS DATA

[ ← Previous Day ]
WEATHER ALMANAC - FEBRUARY 20, 2013
[ Next Day → ]
[ °C ]   °F
Weather ElementAverageHighLow
Temperature47.5 °F57.9 °F (3:53 pm)37 °F (11:53 pm)
Dewpoint28.5 °F43 °F (1:53 am)17.1 °F (2:53 pm)
Humidity53.8 %89 % (1:53 am)21 % (2:53 pm)
Barometer30.07 in30.13 in (10:53 am)29.99 in (1:53 am)
Wind Speed6.7 mph10.4 mph (9:53 am)
Weather ElementAverage
Visibility10 mi
Wind DirectionWSW (233.9 °)

Weather ElementTotal
Precipitation---
Heating Degree Days17.6 (Base 65)
Averaged from 23 records on February 20, 2013
WEATHER CONDITIONS BREAKOUT
WIND DIRECTION BREAKOUT
WEATHER BY HOUR - FEBRUARY 20, 2013
[ °C ]   °F
Local TimeTemperatureDewpointHumidityBarometerVisibilityWind DirectionWind SpeedGust SpeedPrecipitationEventsConditions
1:53 AM46.0 °F43.0 °F89 %29.99 in10.0 miWest (260°)8.1 mphClear
2:53 AM45.0 °F41.0 °F86 %30.00 in10.0 miWest (270°)6.9 mphClear
3:53 AM43.0 °F39.9 °F89 %30.01 in10.0 miWest (280°)5.8 mphClear
4:53 AM42.1 °F37.9 °F85 %30.04 in10.0 miWNW (290°)6.9 mphClear
5:53 AM41.0 °F35.1 °F79 %30.07 in10.0 miWNW (290°)5.8 mphClear
6:53 AM37.9 °F30.9 °F76 %30.09 in10.0 miNW (310°)4.6 mphClear
7:53 AM42.8 °F32.0 °F66 %30.11 in10.0 miNW (320°)6.9 mphClear
8:53 AM45.0 °F28.0 °F52 %30.12 in10.0 miNNW (330°)8.1 mphClear
9:53 AM48.0 °F21.9 °F36 %30.12 in10.0 miNNW (330°)10.4 mphClear
10:53 AM50.0 °F19.0 °F29 %30.13 in10.0 miVariable4.6 mphClear
11:53 AM53.1 °F19.0 °F26 %30.11 in10.0 miWNW (290°)9.2 mphClear
12:53 PM54.0 °F19.0 °F25 %30.07 in10.0 miWNW (300°)8.1 mphClear
1:53 PM55.9 °F19.0 °F24 %30.04 in10.0 miWest (280°)10.4 mphClear
2:53 PM57.0 °F17.1 °F21 %30.02 in10.0 miWest (270°)8.1 mphClear
3:53 PM57.9 °F21.0 °F24 %30.03 in10.0 miWNW (300°)9.2 mphClear
4:53 PM55.0 °F19.0 °F24 %30.04 in10.0 miWest (270°)10.4 mphClear
5:53 PM53.1 °F21.0 °F29 %30.06 in10.0 miWest (270°)5.8 mphClear
6:53 PM50.0 °F32.0 °F50 %30.08 in10.0 miWSW (250°)10.4 mphClear
7:53 PM46.9 °F30.9 °F54 %30.10 in10.0 miWSW (240°)9.2 mphClear
8:53 PM46.0 °F32.0 °F58 %30.12 in10.0 miSW (230°)4.6 mphClear
9:53 PM45.0 °F32.0 °F60 %30.12 in10.0 miCalmClear
10:53 PM39.9 °F32.0 °F73 %30.11 in10.0 miCalmClear
11:53 PM37.0 °F32.0 °F82 %30.11 in10.0 miCalmClear
Hourly data recorded from KILM, located miles away from Wilmington, North Carolina







STORIES FROM OUR PARTNERS